Terminal Aerodrome Forecast
Issued by NWS

Home | Current Version | Previous Version | Graphics & Text | Print | Product List | Glossary On
Versions: 1 2 3 4 5 6 7 8 9 10 11 12 13
885
FTUS45 KGGW 240112 AAA
TAFSDY
TAF AMD
KSDY 240112Z 2401/2424 08011G18KT P6SM OVC006
     FM240600 10008KT 4SM -SHRA OVC010
     FM241500 35005KT P6SM VCSH OVC015
     FM242300 02009KT P6SM BKN019=

USA.gov is the U.S. government's official web portal to all federal, state and local government web resources and services.